FW4844 Weather Reports


Display with metric or nautical units.
time (UTC)temp
F
wind
direction
speed
MPH
gust
MPH
rain 1hr
in
rain 24hr
in
rain mn
in
humidity
%
barometer
mb
20260904160010 69 215 4.0 11.0 0.00 0.00 0.00 72 1011.3
20260904155500 70 295 3.0 8.0 0.00 0.00 0.00 68 1011.4
20260904155214 71 257 4.0 10.0 0.00 0.00 0.00 68 1011.3
20260904154448 71 244 4.0 10.0 0.00 0.00 0.00 68 1011.5
20260904153943 72 253 5.0 11.0 0.00 0.00 0.00 70 1011.5
20260904153709 70 248 5.0 11.0 0.00 0.00 0.00 71 1011.5
20260904152941 68 317 5.0 12.0 0.00 0.00 0.00 75 1011.6
20260904152440 69 235 6.0 13.0 0.00 0.00 0.00 74 1011.7
20260904151939 69 253 6.0 14.0 0.00 0.00 0.00 71 1011.6
20260904150935 70 251 5.0 11.0 0.00 0.00 0.00 72 1011.7
20260904150432 68 229 4.0 11.0 0.00 0.00 0.00 74 1011.6
20260904145933 69 240 3.0 7.0 0.00 0.00 0.00 73 1011.6
20260904145436 67 246 2.0 7.0 0.00 0.00 0.00 77 1011.6
20260904144933 66 238 2.0 9.0 0.00 0.00 0.00 77 1011.6
20260904144656 67 319 3.0 12.0 0.00 0.00 0.00 74 1011.5
20260904143934 69 244 3.0 12.0 0.00 0.00 0.00 72 1011.6
20260904143652 69 303 4.0 8.0 0.00 0.00 0.00 77 1011.6
20260904142932 69 48 3.0 8.0 0.00 0.00 0.00 76 1011.5
20260904142429 69 91 3.0 7.0 0.00 0.00 0.00 78 1011.5
20260904142151 69 338 2.0 8.0 0.00 0.00 0.00 80 1011.5
20260904141426 68 220 3.0 8.0 0.00 0.00 0.00 78 1011.5
20260904140931 68 248 4.0 9.0 0.00 0.00 0.00 83 1011.5
20260904140427 67 231 4.0 9.0 0.00 0.00 0.00 80 1011.4
20260904135926 68 304 3.0 10.0 0.00 0.00 0.00 80 1011.4
20260904135423 67 10 4.0 14.0 0.00 0.00 0.00 81 1011.4
20260904134922 67 232 4.0 14.0 0.00 0.00 0.00 82 1011.4
20260904134421 67 271 4.0 12.0 0.00 0.00 0.00 84 1011.4
20260904133921 66 217 3.0 11.0 0.00 0.00 0.00 84 1011.5
20260904133639 66 331 2.0 8.0 0.00 0.00 0.00 87 1011.4
20260904132921 65 70 3.0 10.0 0.00 0.00 0.00 87 1011.4
20260904132423 65 182 3.0 10.0 0.00 0.00 0.00 87 1011.3
20260904132148 64 221 4.0 10.0 0.00 0.00 0.00 88 1011.4
20260904131422 64 271 4.0 10.0 0.00 0.00 0.00 89 1011.4
20260904130922 64 263 4.0 9.0 0.00 0.00 0.00 89 1011.4
20260904130415 64 306 3.0 12.0 0.00 0.00 0.00 90 1011.4
20260904130134 64 323 3.0 12.0 0.00 0.00 0.00 91 1011.5
20260904125402 63 5 2.0 10.0 0.00 0.00 0.00 91 1011.5
20260904125116 63 264 2.0 10.0 0.00 0.00 0.00 91 1011.5
20260904124347 63 315 2.0 5.0 0.00 0.00 0.00 92 1011.5
20260904123841 62 5 3.0 9.0 0.00 0.00 0.00 93 1011.5
20260904123331 62 304 3.0 9.0 0.00 0.00 0.00 94 1011.5
20260904122824 62 14 3.0 8.0 0.00 0.00 0.00 95 1011.5
20260904122318 61 321 3.0 9.0 0.00 0.00 0.00 96 1011.5
20260904122031 60 275 3.0 9.0 0.00 0.00 0.00 97 1011.5
20260904121532 60 290 2.0 8.0 0.00 0.00 0.00 97 1011.5
20260904120807 60 258 2.0 8.0 0.00 0.00 0.00 97 1011.5
20260904120304 60 313 2.0 5.0 0.00 0.00 0.00 97 1011.5
20260904115804 60 320 2.0 7.0 0.00 0.00 0.00 98 1011.6
20260904115306 60 277 2.0 7.0 0.00 0.00 0.00 98 1011.7
20260904115027 59 263 3.0 9.0 0.00 0.00 0.00 98 1011.7
20260904114303 59 296 3.0 9.0 0.00 0.00 0.00 98 1011.6
20260904113803 59 321 3.0 9.0 0.00 0.00 0.00 98 1011.6
20260904113518 59 224 4.0 10.0 0.00 0.00 0.00 98 1011.5
20260904112803 59 5 3.0 10.0 0.00 0.00 0.00 98 1011.5
20260904112305 58 309 3.0 9.0 0.00 0.00 0.00 98 1011.4
20260904111802 59 289 2.0 9.0 0.00 0.00 0.00 98 1011.2
20260904111533 58 279 2.0 7.0 0.00 0.00 0.00 98 1011.2
20260904110803 58 297 3.0 13.0 0.00 0.00 0.00 98 1011.2
20260904110253 58 279 3.0 13.0 0.00 0.00 0.00 98 1011.2
20260904105751 58 240 2.0 7.0 0.00 0.00 0.00 98 1010.9
20260904105251 57 305 1.0 4.0 0.00 0.00 0.00 98 1010.9
20260904104751 57 311 1.0 6.0 0.00 0.00 0.00 98 1010.9
20260904104251 57 315 2.0 8.0 0.00 0.00 0.00 98 1010.9
20260904103751 57 241 2.0 8.0 0.00 0.00 0.00 98 1010.8
20260904103251 58 303 2.0 9.0 0.00 0.00 0.00 98 1010.8
20260904102751 58 294 2.0 9.0 0.00 0.00 0.00 98 1010.7
20260904102250 57 325 1.0 5.0 0.00 0.00 0.00 98 1010.8
20260904101751 58 325 1.0 5.0 0.00 0.00 0.00 98 1010.7
20260904101250 58 308 1.0 5.0 0.00 0.00 0.00 98 1010.7
20260904100750 57 256 1.0 6.0 0.00 0.00 0.00 98 1010.7
20260904100250 57 265 1.0 6.0 0.00 0.00 0.00 98 1010.7
20260904095751 57 284 1.0 4.0 0.00 0.00 0.00 98 1010.6
20260904095251 57 269 2.0 6.0 0.00 0.00 0.00 98 1010.6
20260904094751 58 281 2.0 6.0 0.00 0.00 0.00 98 1010.6
20260904094251 58 247 1.0 4.0 0.00 0.00 0.00 98 1010.6
20260904093751 58 257 2.0 7.0 0.00 0.00 0.00 98 1010.6
20260904093507 58 290 2.0 7.0 0.00 0.00 0.00 98 1010.6
20260904092751 58 256 2.0 6.0 0.00 0.00 0.00 98 1010.6
20260904092250 57 294 1.0 3.0 0.00 0.00 0.00 98 1010.7
20260904091751 57 313 0.0 2.0 0.00 0.00 0.00 98 1010.6
20260904091251 57 314 0.0 2.0 0.00 0.00 0.00 97 1010.6
20260904090750 57 314 0.0 2.0 0.00 0.00 0.00 97 1010.5
20260904090250 57 315 0.0 3.0 0.00 0.00 0.00 97 1010.5
20260904085750 57 315 0.0 3.0 0.00 0.00 0.00 97 1010.4
20260904085251 58 251 1.0 3.0 0.00 0.00 0.00 97 1010.4
20260904084753 58 250 1.0 3.0 0.00 0.00 0.00 97 1010.4
20260904084251 58 251 1.0 7.0 0.00 0.00 0.00 97 1010.5
20260904083748 58 251 2.0 7.0 0.00 0.00 0.00 97 1010.4
20260904082746 59 328 2.0 8.0 0.00 0.00 0.00 97 1010.2
20260904082246 58 74 2.0 8.0 0.00 0.00 0.00 97 1010.4
20260904081746 59 238 2.0 7.0 0.00 0.00 0.00 97 1010.5
20260904081246 59 30 3.0 8.0 0.00 0.00 0.00 97 1010.4
20260904080747 59 25 2.0 10.0 0.00 0.00 0.00 97 1010.4
20260904080240 58 335 2.0 10.0 0.00 0.00 0.00 97 1010.4
20260904075731 58 309 2.0 8.0 0.00 0.00 0.00 97 1010.2
20260904075449 59 332 2.0 7.0 0.00 0.00 0.00 97 1010.2
20260904074719 59 310 2.0 6.0 0.00 0.00 0.00 97 1010.4
20260904074209 59 261 2.0 6.0 0.00 0.00 0.00 97 1010.4
20260904073703 58 0 2.0 6.0 0.00 0.00 0.00 97 1010.2
20260904073156 58 261 2.0 6.0 0.00 0.00 0.00 97 1010.4
20260904072654 58 228 1.0 4.0 0.00 0.00 0.00 97 1010.5
20260904072415 58 13 1.0 4.0 0.00 0.00 0.00 97 1010.4
20260904071652 58 246 1.0 4.0 0.00 0.00 0.00 97 1010.4
20260904071150 58 54 0.0 2.0 0.00 0.00 0.00 97 1010.2
20260904070648 58 54 0.0 3.0 0.00 0.00 0.00 96 1010.1
20260904070146 58 54 0.0 3.0 0.00 0.00 0.00 96 1010.0
20260904065645 58 55 1.0 3.0 0.00 0.01 0.00 96 1010.2
20260904065145 58 55 1.0 4.0 0.00 0.01 0.00 95 1010.2
20260904064644 59 55 1.0 4.0 0.00 0.01 0.00 95 1010.2
20260904064147 59 236 1.0 2.0 0.00 0.01 0.00 95 1010.4
20260904063644 59 236 1.0 3.0 0.00 0.01 0.00 95 1010.4
20260904063144 60 236 1.0 3.0 0.00 0.01 0.00 95 1010.4
20260904062907 60 218 1.0 3.0 0.00 0.01 0.00 94 1010.4
20260904062358 60 209 1.0 3.0 0.00 0.01 0.00 95 1010.4
20260904061640 60 224 1.0 3.0 0.00 0.01 0.00 94 1010.5
20260904061358 60 224 1.0 3.0 0.00 0.01 0.00 94 1010.6
20260904060631 61 225 1.0 3.0 0.00 0.01 0.00 93 1010.6
20260904060128 61 225 1.0 2.0 0.00 0.02 0.00 93 1010.7
20260904055850 62 246 1.0 9.0 0.00 0.02 0.00 92 1010.8
20260904055358 62 246 2.0 9.0 0.00 0.03 0.00 92 1010.7
20260904054628 62 351 3.0 8.0 0.00 0.03 0.00 91 1010.7
20260904054128 63 225 4.0 13.0 0.00 0.03 0.00 90 1010.6
20260904053629 63 239 4.0 13.0 0.00 0.03 0.00 90 1010.7
20260904053128 63 248 4.0 13.0 0.00 0.03 0.00 91 1010.6
20260904052628 62 247 3.0 12.0 0.00 0.04 0.00 91 1010.5
20260904052356 62 209 3.0 9.0 0.00 0.05 0.00 91 1010.5
20260904051628 62 251 3.0 10.0 0.00 0.07 0.00 91 1010.6
20260904051130 62 277 3.0 12.0 0.00 0.09 0.00 92 1010.6
20260904050853 62 215 3.0 12.0 0.00 0.10 0.00 93 1010.8
20260904050128 61 230 4.0 9.0 0.00 0.10 0.00 93 1010.9
20260904045628 61 267 4.0 10.0 0.00 0.11 0.00 93 1011.1
20260904045122 61 251 4.0 10.0 0.00 0.11 0.00 93 1011.1
20260904044833 62 248 3.0 9.0 0.00 0.11 0.00 93 1011.1
20260904044341 61 240 3.0 9.0 0.00 0.11 0.00 94 1011.2
20260904043610 61 248 3.0 8.0 0.00 0.11 0.00 94 1011.1
20260904043108 61 270 4.0 8.0 0.00 0.11 0.00 94 1011.2
20260904042608 61 255 4.0 8.0 0.00 0.11 0.00 94 1011.2
20260904042108 62 253 4.0 8.0 0.00 0.12 0.00 93 1011.2
20260904041609 62 267 4.0 8.0 0.00 0.12 0.00 93 1011.2
20260904041110 62 252 3.0 8.0 0.00 0.12 0.00 93 1011.2
20260904040829 62 246 4.0 8.0 0.00 0.12 0.00 93 1011.4
20260904040108 62 244 3.0 8.0 0.00 0.13 0.00 93 1011.3
20260904035829 62 247 3.0 9.0 0.00 0.13 0.13 94 1011.4
20260904035106 62 255 4.0 10.0 0.00 0.13 0.13 94 1011.3
20260904034606 61 306 4.0 11.0 0.00 0.13 0.13 94 1011.3
20260904034337 61 275 4.0 12.0 0.00 0.13 0.13 95 1011.4
20260904033606 61 237 4.0 12.0 0.00 0.14 0.13 95 1011.3
20260904033107 61 260 4.0 10.0 0.00 0.14 0.13 95 1011.4
20260904032601 61 248 3.0 7.0 0.00 0.14 0.13 95 1011.4
20260904032051 61 260 3.0 7.0 0.00 0.14 0.13 95 1011.5
20260904031545 60 251 3.0 8.0 0.00 0.14 0.13 95 1011.6
20260904031039 60 262 3.0 8.0 0.00 0.14 0.13 95 1011.6
20260904030754 61 267 4.0 9.0 0.00 0.14 0.13 95 1011.7
20260904030023 60 249 5.0 10.0 0.00 0.15 0.13 95 1011.5
20260904025517 60 221 4.0 10.0 0.00 0.15 0.13 95 1011.5
20260904025235 60 289 4.0 9.0 0.00 0.15 0.13 94 1011.4
20260904024501 61 243 3.0 6.0 0.00 0.15 0.13 94 1011.5
20260904023955 61 254 3.0 8.0 0.00 0.15 0.13 94 1011.5
20260904023445 61 250 3.0 8.0 0.00 0.15 0.13 94 1011.6
20260904022939 61 243 3.0 7.0 0.00 0.15 0.13 94 1011.6
20260904022433 61 264 3.0 7.0 0.00 0.15 0.13 94 1011.7
20260904021923 61 248 3.0 8.0 0.00 0.15 0.13 93 1011.7
20260904021417 62 260 3.0 8.0 0.00 0.15 0.13 94 1011.8
20260904020911 62 238 3.0 8.0 0.00 0.16 0.13 94 1011.9
20260904020401 62 263 4.0 8.0 0.00 0.16 0.13 94 1011.8
20260904020121 62 257 3.0 6.0 0.00 0.16 0.13 93 1011.8
20260904015609 62 231 3.0 8.0 0.00 0.16 0.13 93 1011.8
20260904015058 62 281 3.0 8.0 0.00 0.16 0.13 93 1011.9
20260904014601 62 294 3.0 7.0 0.00 0.16 0.13 93 1012.0
20260904013827 62 255 3.0 7.0 0.00 0.16 0.13 92 1012.0
20260904013316 62 267 3.0 7.0 0.00 0.16 0.13 92 1012.0
20260904012811 63 259 4.0 8.0 0.00 0.16 0.13 92 1012.0
20260904012306 63 249 4.0 8.0 0.00 0.16 0.13 92 1012.1
20260904011801 63 244 4.0 9.0 0.00 0.16 0.13 92 1011.9
20260904011514 62 243 4.0 9.0 0.00 0.16 0.13 93 1011.8
20260904010757 62 263 4.0 8.0 0.00 0.16 0.13 93 1011.8
20260904010256 62 251 4.0 8.0 0.00 0.16 0.13 93 1011.8
20260904005756 62 240 4.0 8.0 0.00 0.16 0.13 93 1011.8
20260904005256 62 257 3.0 9.0 0.00 0.16 0.13 93 1011.9
20260904005020 62 277 4.0 9.0 0.00 0.16 0.13 93 1011.9
20260904004254 62 248 3.0 9.0 0.00 0.16 0.13 92 1011.8
20260904003754 62 254 3.0 9.0 0.00 0.16 0.13 93 1011.8
20260904003255 62 246 3.0 8.0 0.00 0.16 0.13 93 1011.8
20260904002753 63 246 3.0 8.0 0.00 0.16 0.13 92 1011.9
20260904002254 63 259 3.0 8.0 0.00 0.16 0.13 92 1011.7
20260904001250 63 259 3.0 7.0 0.00 0.16 0.13 92 1011.6
20260904000748 63 258 4.0 9.0 0.00 0.16 0.13 91 1011.5
20260904000248 63 254 4.0 9.0 0.00 0.16 0.13 92 1011.5
20260903235742 63 259 3.0 8.0 0.00 0.16 0.13 91 1011.3
20260903235243 63 237 3.0 8.0 0.00 0.16 0.13 92 1011.2
20260903234745 63 269 3.0 7.0 0.00 0.16 0.13 93 1011.1
20260903234240 63 288 2.0 6.0 0.00 0.16 0.13 93 1010.9
20260903233744 63 250 2.0 4.0 0.00 0.16 0.13 93 1011.0
20260903233506 63 250 2.0 6.0 0.00 0.16 0.13 92 1011.0
20260903232740 63 242 3.0 7.0 0.00 0.16 0.13 91 1011.0
20260903232234 64 252 3.0 7.0 0.00 0.16 0.13 91 1011.1
20260903231956 64 257 3.0 5.0 0.00 0.16 0.13 91 1011.1
20260903231454 64 259 3.0 5.0 0.00 0.16 0.13 92 1011.2
20260903230739 64 249 3.0 4.0 0.00 0.16 0.13 91 1011.2
20260903230236 64 249 3.0 7.0 0.00 0.16 0.13 90 1011.1
20260903225735 65 252 3.0 7.0 0.00 0.16 0.13 89 1011.1
20260903225458 65 245 2.0 5.0 0.00 0.16 0.13 87 1011.1
20260903224734 66 244 2.0 8.0 0.00 0.16 0.13 87 1011.2
20260903224230 66 265 2.0 8.0 0.00 0.16 0.13 84 1011.3
20260903223730 67 252 2.0 5.0 0.00 0.16 0.13 84 1011.2
20260903223229 67 252 3.0 6.0 0.00 0.16 0.13 81 1011.3
20260903223002 69 257 3.0 9.0 0.00 0.16 0.13 79 1011.2
20260903222231 69 259 3.0 9.0 0.00 0.16 0.13 75 1011.2
20260903221952 70 239 4.0 11.0 0.00 0.16 0.13 73 1011.1
20260903221229 70 249 5.0 14.0 0.00 0.16 0.13 71 1011.2
20260903220731 71 230 5.0 14.0 0.00 0.16 0.13 73 1011.2
20260903220226 72 244 4.0 8.0 0.00 0.16 0.13 72 1011.2
20260903215723 71 252 4.0 10.0 0.00 0.16 0.13 73 1011.2
20260903214723 71 261 4.0 11.0 0.00 0.16 0.13 72 1011.0
20260903214227 73 209 5.0 14.0 0.00 0.16 0.13 69 1011.0
20260903213722 73 229 6.0 14.0 0.00 0.16 0.13 67 1011.1
20260903213222 73 250 6.0 15.0 0.00 0.16 0.13 66 1011.1
20260903212722 74 247 6.0 15.0 0.00 0.16 0.13 68 1011.2
20260903212222 73 243 7.0 17.0 0.00 0.16 0.13 68 1011.1
20260903211722 74 262 7.0 17.0 0.00 0.16 0.13 69 1011.2
20260903211221 74 242 7.0 17.0 0.00 0.16 0.13 68 1011.4
20260903210722 74 235 6.0 15.0 0.00 0.16 0.13 69 1011.3
20260903210449 74 244 5.0 11.0 0.00 0.16 0.13 67 1011.1
20260903205722 73 254 5.0 11.0 0.00 0.16 0.13 73 1011.5
20260903205221 71 276 5.0 9.0 0.00 0.16 0.13 79 1011.5
20260903204721 70 250 5.0 13.0 0.00 0.16 0.13 79 1011.3
20260903204456 71 244 4.0 13.0 0.00 0.16 0.13 75 1011.2
20260903203725 70 277 3.0 8.0 0.00 0.16 0.13 75 1011.2
20260903203226 70 238 4.0 8.0 0.00 0.16 0.13 79 1011.1
20260903202948 71 255 4.0 9.0 0.00 0.16 0.13 76 1011.1
20260903202224 71 244 5.0 13.0 0.00 0.16 0.13 75 1011.1
20260903201724 71 273 5.0 13.0 0.00 0.16 0.13 74 1011.1
20260903201222 71 241 5.0 14.0 0.00 0.16 0.13 74 1011.0
20260903200722 71 248 4.0 14.0 0.00 0.16 0.13 75 1011.1
20260903200222 71 218 4.0 9.0 0.00 0.16 0.13 77 1011.1
20260903195222 74 271 7.0 20.0 0.00 0.16 0.13 67 1011.1
20260903194723 74 236 7.0 20.0 0.00 0.16 0.13 66 1011.1
20260903194222 74 253 8.0 16.0 0.00 0.16 0.13 65 1011.1
20260903193721 75 238 7.0 15.0 0.00 0.16 0.13 62 1011.1
20260903193453 77 245 5.0 14.0 0.00 0.16 0.13 64 1011.1
20260903192721 77 327 6.0 17.0 0.00 0.16 0.13 68 1011.2
20260903192221 76 305 8.0 21.0 0.00 0.16 0.13 68 1011.2
20260903191719 76 5 6.0 21.0 0.00 0.16 0.13 63 1011.2
20260903191219 76 233 3.0 9.0 0.00 0.16 0.13 70 1011.1
20260903190717 74 317 3.0 9.0 0.00 0.16 0.13 73 1011.1
20260903190217 75 268 4.0 12.0 0.00 0.16 0.13 71 1011.0
20260903185715 76 69 7.0 18.0 0.00 0.16 0.13 71 1011.1
20260903185215 76 225 7.0 18.0 0.00 0.16 0.13 67 1011.1
20260903184717 76 272 7.0 18.0 0.00 0.16 0.13 66 1011.0
20260903184217 76 238 8.0 15.0 0.00 0.16 0.13 70 1011.1
20260903183716 75 229 8.0 15.0 0.00 0.16 0.13 68 1011.1
20260903183209 76 236 7.0 14.0 0.00 0.16 0.13 74 1011.0
20260903182700 75 238 8.0 17.0 0.00 0.16 0.13 72 1011.0
20260903181905 76 243 7.0 15.0 0.00 0.16 0.13 73 1011.1
20260903181136 75 252 5.0 14.0 0.00 0.16 0.13 74 1011.2
20260903180626 76 250 5.0 10.0 0.00 0.16 0.13 75 1011.2
20260903180120 74 315 5.0 12.0 0.00 0.16 0.13 79 1011.3
20260903175614 72 243 4.0 12.0 0.00 0.16 0.13 82 1011.4
20260903175326 72 227 4.0 11.0 0.00 0.16 0.13 79 1011.3
20260903174559 73 288 5.0 13.0 0.00 0.16 0.13 78 1011.3
20260903174053 74 251 7.0 17.0 0.00 0.16 0.13 78 1011.3
20260903173542 76 280 8.0 17.0 0.00 0.16 0.13 75 1011.3
20260903173036 75 257 7.0 15.0 0.00 0.16 0.13 73 1011.4
20260903172754 75 236 6.0 15.0 0.00 0.16 0.13 80 1011.4
20260903172020 76 250 6.0 12.0 0.00 0.16 0.13 80 1011.4
20260903171514 75 255 7.0 12.0 0.00 0.16 0.13 81 1011.4
20260903171008 74 251 7.0 12.0 0.00 0.16 0.13 85 1011.5
20260903170458 74 254 7.0 16.0 0.00 0.16 0.13 81 1011.4
20260903165952 74 235 7.0 16.0 0.00 0.16 0.13 86 1011.4
20260903165443 73 252 7.0 13.0 0.00 0.16 0.13 88 1011.5
20260903164934 73 223 7.0 16.0 0.00 0.16 0.13 87 1011.6
20260903164657 73 228 6.0 16.0 0.00 0.16 0.13 87 1011.5
20260903163923 72 240 5.0 11.0 0.00 0.16 0.13 93 1011.5
20260903163412 70 240 5.0 11.0 0.00 0.16 0.13 92 1011.7
20260903162906 70 232 5.0 9.0 0.00 0.16 0.13 92 1011.7
20260903162400 70 222 5.0 9.0 0.00 0.16 0.13 93 1011.7
20260903161850 70 230 5.0 11.0 0.00 0.16 0.13 93 1011.7
20260903161344 70 218 4.0 11.0 0.00 0.16 0.13 93 1011.8
20260903160839 70 231 4.0 8.0 0.00 0.16 0.13 94 1011.8
20260903160328 70 227 4.0 6.0 0.00 0.16 0.13 93 1011.8